Location: Unspecified
(0.0000°N, 0.0000°E)
Time: 06:36:16
(UTC+00:00)

LES 2 - Pass Details

Date: 13 October 2025
Orbit: 2783 x 14792 km, 32.1° (Epoch: 30 October)

Event Time Altitude Azimuth Distance (km) Brightness Sun altitude
Rises 04:08:35 0° 234° (SW) 7,676 ? -24.2°
Reaches altitude 10° 04:13:33 10° 223° (SW) 7,287 ? -22.9°
Maximum altitude 04:43:04 37° 152° (SSE) 9,454 ? -15.6°
Drops below altitude 10° 06:41:47 10° 77° (ENE) 18,963 ? 13.8°
Sets 07:11:08 0° 69° (ENE) 18,898 ? 21.0°
